Total_Precipitation_Accumulation
1.66 1.50 1.28 1.18 1.10 0.98 0.96 0.97 0.92 0.89 0.82 0.78 0.74 0.64 0.60 0.55 0.51 0.45 0.40 0.41 0.54 0.81 1.06 1.25 1.31 1.26 1.25 1.22 1.05 0.98 0.92 0.91 0.89 0.85 0.81 0.78 0.78 0.77 0.79 0.80 0.79 0.80 0.82
1.86 1.77 1.60 1.45 1.32 1.19 1.07 1.03 0.94 0.92 0.91 0.84 0.78 0.70 0.68 0.62 0.58 0.53 0.42 0.36 0.42 0.57 0.89 1.24 1.52 1.62 1.62 1.60 1.40 1.29 1.19 1.08 1.04 0.97 0.91 0.88 0.84 0.84 0.85 0.87 0.86 0.89 0.93
2.03 2.00 1.84 1.68 1.46 1.41 1.38 1.30 1.16 1.05 0.99 0.93 0.86 0.80 0.77 0.70 0.64 0.62 0.55 0.45 0.41 0.43 0.63 0.96 1.32 1.55 1.68 1.78 1.69 1.54 1.40 1.25 1.15 1.08 1.02 0.98 0.95 0.90 0.91 0.95 0.98 0.99 1.01
2.13 2.18 2.02 1.88 1.77 1.61 1.53 1.47 1.37 1.26 1.16 1.09 1.01 0.95 0.92 0.85 0.71 0.64 0.59 0.55 0.54 0.48 0.50 0.73 0.98 1.21 1.40 1.58 1.74 1.77 1.67 1.46 1.27 1.15 1.09 1.05 1.04 1.04 1.04 1.07 1.09 1.11 1.10
2.44 2.31 2.14 1.98 2.01 1.92 1.69 1.59 1.50 1.34 1.24 1.15 1.09 1.06 1.01 0.95 0.88 0.79 0.69 0.57 0.52 0.52 0.54 0.64 0.77 0.87 1.03 1.21 1.50 1.76 1.78 1.69 1.48 1.30 1.19 1.12 1.11 1.15 1.21 1.26 1.24 1.21 1.22
2.69 2.66 2.43 2.31 2.24 2.19 1.99 1.76 1.59 1.45 1.30 1.29 1.24 1.17 1.13 1.12 1.02 0.93 0.86 0.77 0.65 0.55 0.54 0.58 0.68 0.71 0.79 0.93 1.14 1.42 1.60 1.69 1.64 1.54 1.42 1.36 1.33 1.33 1.40 1.44 1.43 1.42 1.45
2.73 2.80 2.67 2.59 2.49 2.29 2.14 1.99 1.82 1.64 1.47 1.46 1.48 1.32 1.20 1.17 1.16 1.04 0.96 0.89 0.81 0.74 0.68 0.66 0.69 0.72 0.72 0.81 0.89 1.07 1.23 1.37 1.54 1.61 1.56 1.51 1.51 1.52 1.54 1.60 1.61 1.61 1.67
2.90 2.88 2.75 2.72 2.71 2.52 2.35 2.18 2.07 1.87 1.65 1.62 1.64 1.62 1.44 1.30 1.16 1.04 0.99 0.92 0.85 0.84 0.83 0.82 0.81 0.82 0.80 0.78 0.77 0.86 0.96 1.15 1.44 1.74 1.82 1.76 1.77 1.76 1.78 1.84 1.91 1.95 1.99
3.05 2.90 2.84 2.84 2.84 2.78 2.64 2.50 2.41 2.20 1.97 1.84 1.73 1.85 1.68 1.36 1.12 1.05 1.00 0.93 0.88 0.87 0.88 0.90 0.92 0.95 0.90 0.84 0.81 0.83 0.91 1.05 1.38 1.78 2.02 2.09 2.08 2.07 2.16 2.23 2.31 2.38 2.35
3.12 3.02 2.94 2.91 2.92 2.88 2.78 2.74 2.67 2.55 2.37 2.19 2.00 1.79 1.63 1.39 1.26 1.13 1.01 0.97 0.96 0.93 0.95 0.97 0.99 1.06 1.04 0.95 0.93 0.96 1.01 1.11 1.33 1.74 2.15 2.40 2.55 2.65 2.71 2.78 2.83 2.86 2.76
3.13 3.01 2.90 2.86 2.85 2.91 2.91 2.83 2.75 2.73 2.57 2.34 2.14 1.96 1.79 1.53 1.31 1.24 1.07 0.95 0.94 0.90 0.89 0.92 0.93 0.96 1.04 1.01 1.02 1.14 1.23 1.26 1.43 1.76 2.26 2.70 2.96 3.22 3.40 3.45 3.43 3.37 3.26
3.02 2.93 2.84 2.72 2.66 2.74 2.86 2.95 2.86 2.78 2.73 2.51 2.26 2.04 1.90 1.74 1.51 1.39 1.27 1.10 1.05 0.95 0.89 0.88 0.94 0.99 1.10 1.09 1.12 1.31 1.36 1.40 1.56 1.85 2.31 2.71 3.00 3.26 3.46 3.69 3.75 3.65 3.57
2.83 2.62 2.63 2.63 2.54 2.50 2.64 2.84 2.91 2.79 2.71 2.62 2.47 2.24 2.03 1.78 1.61 1.60 1.60 1.47 1.32 1.13 1.06 1.02 0.99 1.04 1.19 1.28 1.27 1.41 1.36 1.43 1.52 1.70 2.06 2.43 2.60 2.75 2.93 3.30 3.63 3.71 3.62
2.82 2.61 2.51 2.57 2.62 2.55 2.54 2.65 2.69 2.62 2.60 2.55 2.47 2.38 2.26 2.02 1.84 1.77 1.80 1.92 1.89 1.60 1.39 1.24 1.19 1.24 1.30 1.41 1.47 1.53 1.36 1.51 1.54 1.59 1.76 2.00 2.07 2.10 2.16 2.37 2.73 3.02 3.21
2.66 2.61 2.53 2.49 2.50 2.57 2.58 2.62 2.60 2.45 2.40 2.39 2.31 2.28 2.22 2.07 1.98 1.92 1.93 2.06 2.30 2.19 1.78 1.44 1.38 1.40 1.42 1.47 1.54 1.36 1.19 1.38 1.44 1.43 1.49 1.58 1.63 1.59 1.59 1.73 1.90 2.06 2.25
2.28 2.38 2.43 2.36 2.34 2.33 2.37 2.47 2.50 2.39 2.30 2.23 2.17 2.15 2.09 1.98 1.95 1.95 1.95 1.97 2.11 2.26 2.04 1.51 1.29 1.26 1.33 1.36 1.48 1.23 1.08 1.28 1.23 1.21 1.28 1.35 1.40 1.37 1.36 1.44 1.54 1.59 1.62
2.04 2.09 2.15 2.15 2.14 2.15 2.13 2.19 2.21 2.21 2.18 2.07 2.02 2.02 1.96 1.86 1.86 1.84 1.85 1.87 1.89 1.94 1.93 1.49 1.19 1.12 1.19 1.21 1.25 1.14 1.00 0.97 0.95 1.08 1.09 1.15 1.19 1.22 1.24 1.29 1.36 1.41 1.44
1.77 1.86 1.89 1.92 1.92 1.93 1.91 1.91 1.90 1.88 1.92 1.88 1.81 1.82 1.81 1.78 1.75 1.70 1.73 1.72 1.67 1.63 1.64 1.48 1.20 1.08 1.03 0.99 0.98 0.98 0.89 0.84 0.80 0.93 0.95 0.97 1.02 1.07 1.10 1.13 1.21 1.26 1.29
1.53 1.62 1.71 1.73 1.74 1.74 1.69 1.64 1.63 1.60 1.55 1.56 1.57 1.60 1.58 1.66 1.73 1.68 1.64 1.58 1.49 1.45 1.46 1.43 1.21 1.02 0.95 0.91 0.94 0.93 0.84 0.79 0.74 0.79 0.84 0.84 0.88 0.94 1.02 1.07 1.08 1.11 1.12
1.48 1.48 1.53 1.58 1.60 1.63 1.64 1.58 1.54 1.56 1.52 1.45 1.45 1.52 1.55 1.57 1.59 1.57 1.56 1.49 1.46 1.49 1.46 1.48 1.37 1.19 1.08 1.00 1.03 1.02 0.96 0.85 0.79 0.75 0.84 0.87 0.90 0.93 0.94 0.96 0.93 0.89 0.90
1.54 1.48 1.49 1.53 1.56 1.62 1.66 1.69 1.68 1.70 1.74 1.73 1.64 1.59 1.58 1.63 1.63 1.62 1.57 1.50 1.48 1.56 1.59 1.60 1.51 1.32 1.16 1.11 1.11 1.03 1.04 1.01 0.93 0.86 0.88 0.83 0.82 0.80 0.81 0.86 0.91 0.92 0.89
1.67 1.58 1.58 1.60 1.62 1.67 1.92 1.94 1.83 1.78 1.82 1.78 1.70 1.57 1.50 1.54 1.51 1.57 1.59 1.56 1.59 1.67 1.75 1.73 1.55 1.30 1.03 0.95 1.01 1.13 1.22 1.35 1.29 0.93 0.89 0.86 0.80 0.83 0.77 0.76 0.87 0.92 0.97
1.76 1.74 1.73 1.78 1.80 1.83 1.96 1.85 1.85 1.72 1.69 1.60 1.53 1.48 1.41 1.36 1.42 1.33 1.45 1.58 1.63 1.71 1.67 1.56 1.42 1.13 0.96 0.89 1.09 1.37 1.39 1.36 1.16 0.89 0.97 1.03 0.88 0.85 0.76 0.80 0.95 0.92 0.94
1.92 1.91 1.90 1.91 1.89 1.88 1.88 1.73 1.69 1.54 1.50 1.45 1.36 1.32 1.30 1.27 1.26 1.30 1.38 1.49 1.38 1.32 1.28 1.18 1.13 1.05 1.00 1.00 1.19 1.44 1.53 1.50 1.27 1.08 1.12 1.24 1.00 0.92 0.79 0.78 0.92 0.92 0.94
2.04 2.00 1.91 1.81 1.71 1.66 1.66 1.55 1.52 1.39 1.37 1.32 1.24 1.20 1.22 1.18 1.32 1.52 1.52 1.47 1.29 1.17 1.22 1.26 1.26 1.23 1.29 1.32 1.34 1.55 1.76 1.91 1.70 1.30 1.13 1.21 1.03 0.98 0.96 0.87 0.87 0.94 0.92
1.85 1.80 1.74 1.64 1.50 1.38 1.42 1.41 1.42 1.30 1.28 1.20 1.16 1.12 1.22 1.20 1.39 1.57 1.45 1.39 1.29 1.15 1.14 1.15 1.15 1.14 1.10 1.15 1.34 1.42 1.75 2.19 1.97 1.56 1.10 1.21 1.17 1.23 1.47 1.07 0.87 0.90 0.94